Regional Weather Roundup
Issued by NWS Upton, NY

Current Version | Previous Version | Graphics & Text | Print | Product List | Glossary Off
Versions: 1 2 3 4 5 6 7 8 9 10 11 12 13 14 15 16 17 18 19 20 21 22 23 24 25 26 27 28 29

000
ASUS41 KOKX 301605
RWROKX

REGIONAL WEATHER ROUNDUP
NATIONAL WEATHER SERVICE NEW YORK NY
1200 PM EDT THU OCT 30 2014

NOTE: "FAIR" INDICATES FEW OR NO CLOUDS BELOW 12,000 FEET WITH NO
SIGNIFICANT WEATHER AND/OR OBSTRUCTIONS TO VISIBILITY.

NYZ071-072-176-178-NJZ106-104-301700-
NEW YORK CITY METRO AREA


CITY           SKY/WX    TMP DP  RH WIND       PRES   REMARKS
CENTRAL PARK   SUNNY     55  38  52 VRB7      30.01F
LAGUARDIA APRT MOSUNNY   56  38  50 N9        29.99S
KENNEDY INTL   MOSUNNY   58  38  47 NW13      29.99F
NEWARK/LIBERTY MOSUNNY   57  39  51 N10G16    30.00S
BRNX BOT. GARD   N/A     57  37  47 NW5       30.01S
TETERBORO      SUNNY     57  38  48 NW8       29.99S
$$

NYZ177-179-078>081-301700-
LONG ISLAND NEW YORK

CITY           SKY/WX    TMP DP  RH WIND       PRES   REMARKS
FARMINGDALE    MOSUNNY   58  42  55 N10       29.98F
ISLIP          MOSUNNY   58  43  57 VRB6      29.96F
SHIRLEY        SUNNY     59  42  53 VRB6      29.98F
WESTHAMPTON    SUNNY     59  41  51 VRB5      29.98F
MONTAUK POINT    N/A     59  41  51 NW6       29.97F
$$

NYZ052-065-067-301700-
HUDSON VALLEY

CITY           SKY/WX    TMP DP  RH WIND       PRES   REMARKS
WHITE PLAINS   MOSUNNY   54  41  61 N8        29.98S
NEWBURGH       MOSUNNY   54  39  58 NW17      30.00S
MONTGOMERY     SUNNY     53  36  52 NW15      29.99F
POUGHKEEPSIE   PTSUNNY   53  39  59 W5        29.98F
ALBANY         PTSUNNY   53  37  54 NW14      29.99S
$$

NJZ001-105-106-008-010-013-015-019>022-104-301700-
NEW JERSEY

CITY           SKY/WX    TMP DP  RH WIND       PRES   REMARKS
NEWARK/LIBERTY MOSUNNY   57  39  51 N10G16    30.00S
TETERBORO      SUNNY     57  38  48 NW8       29.99S
CALDWELL       SUNNY     54  37  52 NW10      30.01S
MORRISTOWN     MOSUNNY   55  41  58 NW10G17   30.01F
SOMERVILLE     MOSUNNY   55  38  52 N12       30.01R
SUSSEX         CLOUDY    53  37  54 N8        30.02S
ANDOVER          N/A     53  38  56 VRB5      30.02S
TRENTON        SUNNY     56  40  55 N8        30.01F
MILLVILLE      CLOUDY    54  43  66 N6        30.03S
ATLANTIC CITY  PTSUNNY   56  43  61 N8        30.01F
WRIGHTSTOWN    SUNNY     57  38  48 N8        29.99F
TOMS RIVER     SUNNY     57  39  51 N7        30.01S
BELMAR         SUNNY     57  37  47 NW9       30.00S
$$

PAZ047>061-062-071-301700-
EASTERN PENNSYLVANIA

CITY           SKY/WX    TMP DP  RH WIND       PRES   REMARKS
PHILADELPHIA   MOSUNNY   58  38  47 N10       30.03S
ALLENTOWN      MOSUNNY   53  38  56 W6        30.03S
SCRANTON       CLOUDY    48  33  56 VRB7      30.04R
$$

CTZ002-004>006-009-010-012-RIZ004-006-007-MAZ004-011-015-301700-
SOUTHERN NEW ENGLAND
 IN CT

CITY           SKY/WX    TMP DP  RH WIND       PRES   REMARKS
BRADLEY INTL   PTSUNNY   55  37  50 NW9       29.96S
HARTFORD       SUNNY     55  38  52 W10       29.97F
DANBURY        SUNNY     55  38  52 NW10      29.99S
WTRBRY/OXFORD  MOSUNNY   52  37  58 NW9       29.98S
BRIDGEPORT     CLOUDY    56  40  55 N8        29.98S
MERIDEN        MOSUNNY   57  37  47 N9        29.97F
NEW HAVEN      PTSUNNY   57  39  51 VRB5      29.97F
CHESTER        FAIR      55  37  50 NE5       29.97F
GROTON         SUNNY     57  39  51 NW12      29.95F
WILLIMANTIC    SUNNY     56  38  50 N8        29.96F

 IN RI

CITY           SKY/WX    TMP DP  RH WIND       PRES   REMARKS
PROVIDENCE     MOSUNNY   58  37  45 NW14      29.94F
BLOCK ISLAND   SUNNY     57  41  54 NW7       29.96S
WESTERLY       SUNNY     59  39  47 NW10      29.96F

 IN MA

CITY           SKY/WX    TMP DP  RH WIND       PRES   REMARKS
BOSTON         MOSUNNY   57  39  51 W10       29.92F
WORCESTER      MOSUNNY   50  39  66 W10G16    29.94F
WESTFIELD      MOSUNNY   55  36  48 NW12      29.96F
PROVINCETOWN   SUNNY     57   3  11 NW10      29.93F
NANTUCKET      SUNNY     56  43  61 NW9       29.94S
$$

ANZ330-335-338-340-345-350-353-355-301700-
COASTAL MARINE OBSERVATIONS


STATION/POSITION TIME  SKY/WX   TEMP    WIND        PRES    VSBY  WAVE
                                AIR SEA DIR/SP/G                  HT/PER
                 (UTC)          (F)     (DEG/KT/KT) (MB)    (MI)  (FT/S)
NY HARB ENTRANCE 1600            55 61  310/ 10/ 12 1015.7          2/ 6
4S FIRE IS       1600               62                N/A           2/ 7
20S FIRE ISLAND  1600            56 63  350/  8/ 10 1015.1          2/ 7
23SW MTP         1600                                 N/A           2/ 7
HUDSON CANYON    1600            59 64  270/  4/  6 1015.0          2/ 6
EXECUTION ROCKS  1600            58 60  350/ 10/ 16   N/A
WESTERN LI SOUND 1600            54     350/  6/ 10   N/A           0
CENTRAL LI SOUND 1500            54 61  360/  6/  8   N/A           1/ 2
EASTERN LI SOUND 1500            59 62  340/ 10/ 16   N/A
ROBBINS REEF     1600            54     330/ 12/ 16 1014.5
$$


>>>>>>>>>>>>>>>>>>>>>>>>>>>> KEY <<<<<<<<<<<<<<<<<<<<<<<<<<<
>                                                          <
>     SKY/WX - SKY CONDITION/PRESENT WEATHER               <
>     TMP    - TEMPERATURE IN FAHRENHEIT                   <
>     DP     - DEWPOINT IN FAHRENHEIT                      <
>     RH     - RELATIVE HUMIDITY IN PERCENT                <
>     WIND   - DIRECTION AND SPEED IN MPH                  <
>     PRES   - MEAN SEA LEVEL PRESSURE IN INCHES OF HG     <
>     WCI    - WIND CHILL INDEX                            <
>     VSB    - VISIBILITY IN MILES                         <
>     HX     - HEAT INDEX                                  <
>     TC     - TEMPERATURE IN CELSIUS                      <
>     VRB    - VARIABLE WIND DIRECTION                     <
>                                                          <
>>>>>>>>>>>>>>>>>>>>>>>>>>>> KEY <<<<<<<<<<<<<<<<<<<<<<<<<<<





USA.gov is the U.S. government's official web portal to all federal, state and local government web resources and services.